Tracking 19562 objects as of 24-Mar-2019
HD Live streaming from Space Station
objects crossing your sky now

GORIZONT 30

Track GORIZONT 30 now!
GORIZONT 30 is classified as:


NORAD ID: 23108
Int'l Code: 1994-030A
Perigee: 35,753.2 km
Apogee: 35,794.6 km
Inclination: 14.8 °
Period: 1,435.1 minutes
Semi major axis: 42144 km
RCS: 12.5892 m2 (large)
Launch date: May 20, 1994
Source: Commonwealth of Independent States (former USSR) (CIS)
Launch site: TYURATAM MISSILE AND SPACE COMPLEX (TTMTR)
aabbcc
Your satellite tracking list
Your tracking list is empty




NASA's NSSDC Master Catalog

Two Line Element Set (TLE):
1 23108U 94030A   19083.45341928 -.00000315  00000-0  00000+0 0  9996
2 23108  14.8364   9.9409 0004916 296.7018 348.7469  1.00342626 90998
Source of the keplerian elements: AFSPC